STARLINK-35248, 65598

Orbit data source: Space-Track

STARLINK-35248, 65598 is a payload satellite owned by SpaceX/Seattle (US) in SSO that was launched on Sat, 13 Sep 2025 UTC via an FALCON 9 launch vehicle from the Air Force Eastern Test Range (AFETR). Payload-class satellites include a variety of spacecraft equipped with specific instruments for various scientific and technological missions. These include communications satellites like Starlink; space stations such as the ISS; scientific satellites like the Hubble; Earth observation satellites from companies like Planet Labs, Umbra, and HawkEye 360; GPS; miniature CubeSats for education and research; and military/defense satellites.

Loading next visibility...
Identifier
65598, 2025-207G
Orbit
SSO
Country
Flag of USUS
Related business
Manufacturer
SpaceX/Seattle
Mission
Operational Commercial Communications
Bus & Motor
STARLINK V2MO, Unknown motor
Mass
575 kg wet, ~530 kg dry
Launch date (UTC)
2025-09-13 (9 months ago)
Launch vehicle
FALCON 9
Launch site
Air Force Eastern Test Range (AFETR)
Object type
Payload
Rocket body
Debris
Shape & HBR
Box + 2 Pan, 17.7 m
Radar Cross Section
36.964 m², Large (>1 m²)

Expand to show TLE details & history
Last TLE update: 16 hours ago

TLE from 16 hours ago
0 STARLINK-35248
1 65598U 25207G   26166.44970380 -.00005441  00000-0 -37350-3 0  9992
2 65598  97.3600 234.1330 0002533 113.4443 246.7051 15.05639596 42975
Epoch: 2026-06-15T10:47Z
TLE epoch observation values (Epoch: 2026-06-15T10:47:34.408Z)
Latitude
-0.00001°
Longitude
168.50371°
Altitude
553.31 km
Speed
7.585 km/s
True Right ascension
15h 36m 31s
True Declination
0° 00' 00"
Sunlit
Object was in full shadow at epoch
Visualization orbit readout
Latitude
Unknown
Longitude
Unknown
Altitude
Unknown
Speed
Unknown
Apparent Right ascension
Unknown
Apparent Declination
Unknown
Sunlit
N/A
Visualization observer readout
Local Sidereal Time
13:38:50
Azimuth
Unknown
Elevation
Unknown
Doppler factor
Unknown
Orbital elements
Apogee altitude
548.28 km
Perigee altitude
544.772 km
Semi-major axis
6,924.663 km
Eccentricity
0.00025
Inclination
97.36°
RAAN
234.133°
Arg. of periapsis
113.4443°
True anomaly
246.67844°
Mean anomaly
246.7051°
Eccentric anomaly
246.69177°
Mean motion
3.76656 °/min
Orbital period
95.58 mins
BSTAR
-0.0003735
Loading maneuver chart data...
Computing Atmospheric mass density...
Loading historical data...
Loading historical data...
Loading historical data...
Loading historical data...
Loading historical data...
Loading historical data...
Loading historical data...

Documentation

Showing up to 5 results
|